STARLINK-11166, 60062

Orbit data source: Space-Track

STARLINK-11166, 60062 is a payload satellite owned by SpaceX/Seattle (US) in LEO that was launched on Wed, 19 Jun 2024 UTC via an FALCON 9 launch vehicle from the Air Force Western Test Range (AFWTR). Payload-class satellites include a variety of spacecraft equipped with specific instruments for various scientific and technological missions. These include communications satellites like Starlink; space stations such as the ISS; scientific satellites like the Hubble; Earth observation satellites from companies like Planet Labs, Umbra, and HawkEye 360; GPS; miniature CubeSats for education and research; and military/defense satellites.

Not visible in the next 10 days
Identifier
60062, 2024-113D
Orbit
LEO
Country
Flag of USUS
Related business
Manufacturer
SpaceX/Seattle
Mission
Operational Commercial Communications
Bus & Motor
STARLINK V2MD, Unknown motor
Mass
960 kg wet, ~910 kg dry
Launch date (UTC)
2024-06-19 (2 years ago)
Launch vehicle
FALCON 9
Launch site
Air Force Western Test Range (AFWTR)
Object type
Payload
Rocket body
Debris
Shape & HBR
Box + 2 Pan, 18.1 m
Radar Cross Section
36.964 m², Large (>1 m²)

Expand to show TLE details & history
Last TLE update: 18 hours ago

TLE from 18 hours ago
0 STARLINK-11166
1 60062U 24113D   26171.08215008  .00000123  00000-0  58715-5 0  9993
2 60062  53.1584  46.4132 0001051  69.7198 290.3933 15.69713238115640
Epoch: 2026-06-20T01:58Z
TLE epoch observation values (Epoch: 2026-06-20T01:58:17.766Z)
Latitude
-0.00003°
Longitude
108.53727°
Altitude
360.386 km
Speed
7.694 km/s
True Right ascension
03h 05m 39s
True Declination
0° 00' 00"
Sunlit
Object was in daylight at epoch
Visualization orbit readout
Latitude
Unknown
Longitude
Unknown
Altitude
Unknown
Speed
Unknown
Apparent Right ascension
Unknown
Apparent Declination
Unknown
Sunlit
N/A
Visualization observer readout
Local Sidereal Time
07:21:56
Azimuth
Unknown
Elevation
Unknown
Doppler factor
Unknown
Orbital elements
Apogee altitude
360.687 km
Perigee altitude
359.27 km
Semi-major axis
6,738.115 km
Eccentricity
0.00011
Inclination
53.1584°
RAAN
46.4132°
Arg. of periapsis
69.7198°
True anomaly
290.38201°
Mean anomaly
290.3933°
Eccentric anomaly
290.38766°
Mean motion
3.92406 °/min
Orbital period
91.74 mins
BSTAR
0.0000058715
Loading maneuver chart data...
Computing Atmospheric mass density...
Loading historical data...
Loading historical data...
Loading historical data...
Loading historical data...
Loading historical data...
Loading historical data...
Loading historical data...

Documentation

Showing up to 5 results
|